Location: The Rolnick Observatory
(41.1711°N, 73.3275°W)
Time: 14:07:46
(UTC-05:00)

Daily predictions for brighter satellites

Satellite Brightness Start Highest point End
(mag) Time Altitude Azimuth Time Altitude Azimuth Time Altitude Azimuth
Cosmos 2219 4.2 17:57:51 10° SSE 18:02:34 27° ESE 18:07:17 10° NE
Cosmos 1954 Rocket 4.0 18:01:26 10° S 18:06:35 69° ESE 18:11:49 10° NNE
BREEZE-M DEB (TANK) 3.9 18:04:11 10° NW 18:06:45 32° NNE 18:12:12 10° E
Cosmos 1536 4.0 18:04:22 10° SE 18:07:30 23° E 18:10:39 10° NE
Cosmos 2181 Rocket 4.2 18:02:29 10° N 18:08:34 50° ENE 18:14:42 10° SSE
Okean 1 3.4 18:06:54 10° N 18:10:59 87° W 18:15:02 10° S
Cosmos 1709 Rocket 4.0 18:12:23 10° S 18:18:35 74° E 18:24:43 10° N
Okean 1 Rocket 3.4 18:19:30 10° SSE 18:23:48 46° E 18:28:05 10° NNE
Cosmos 1602 3.6 18:23:03 10° S 18:26:55 74° E 18:30:50 10° NNE
Meteor 1-11 Rocket 3.8 18:22:45 10° S 18:28:29 65° E 18:34:21 10° NNE
Cosmos 2151 Rocket 4.5 18:24:05 10° SSW 18:28:30 55° W 18:32:58 10° N
OTV 4 3.0 18:29:38 10° SSE 18:29:58 10° SSE 18:30:19 10° SE
Cosmos 1833 4.4 18:25:20 10° SSW 18:31:02 76° WNW 18:36:42 10° NNE
Cosmos 1340 2.9 18:28:30 10° NNW 18:32:18 74° W 18:36:03 10° S
Cosmos 1025 Rocket 3.7 18:30:53 10° N 18:34:53 34° ENE 18:38:53 10° SE
ALOS 2.5 18:30:30 10° SE 18:34:58 49° ENE 18:39:29 10° N
SL-16 R/B 4.4 18:31:07 10° NW 18:35:59 30° WSW 18:40:49 10° SSW
Cosmos 2333 Rocket 3.3 18:33:46 10° N 18:38:32 26° NE 18:41:50 16° E
FENGYUN 3A 3.6 18:44:02 10° SSE 18:49:23 68° ENE 18:54:47 10° N
Abrixas rocket 2.2 18:47:59 10° SW 18:51:19 71° SSE 18:52:57 27° ENE
FREGAT/IRIS 3.4 18:49:54 10° S 18:52:56 56° W 18:55:58 10° NNW
Cosmos 1741 Rocket 3.9 18:47:57 10° SSW 18:53:10 83° ESE 18:58:25 10° NNE
Cosmos 2285 Rocket 4.2 18:48:40 10° N 18:54:58 53° ENE 19:01:11 10° SE
Genesis I 3.3 18:52:08 10° NW 18:56:04 75° WSW 18:59:58 10° SSE
GEOS 3 Rocket 3.8 18:51:37 10° NE 18:56:42 50° ESE 19:01:49 10° SSW
Okean 1-7 Rocket 3.5 18:52:49 10° N 18:57:22 81° E 19:01:50 10° S
GPS 2-04 Rocket1 3.8 18:56:18 10° WSW 19:00:13 36° S 19:01:59 25° SE
FengYun 1-2 T 4.2 18:57:57 10° SSE 19:03:26 87° ENE 19:08:59 10° NNW
Meteor 1-5 Rocket 4.3 18:57:38 10° S 19:03:32 66° E 19:09:23 10° NNE
Intercosmos 24 4.4 19:04:28 10° S 19:08:45 77° E 19:15:06 10° N
Cosmos 1570 Rocket 4.3 19:05:50 10° NNW 19:11:03 70° WSW 19:16:14 10° S
Hubble Space Telescope 3.1 19:10:48 10° SSW 19:12:21 12° S 19:12:52 12° SSE
SJ-6B 4.3 19:10:02 10° SSW 19:13:46 38° W 19:17:27 10° NNW
ATLAS CENTAUR R/B 2.5 19:11:22 10° SSW 19:14:33 29° SSE 19:14:33 29° SSE
ATLAS 2A CENTAUR R/B 4.3 19:19:10 10° S 19:20:41 11° SSE 19:22:35 10° SSE
Cosmos 405 Rocket 2.7 19:19:08 10° N 19:23:10 61° E 19:23:33 57° ESE
Cosmos 468 Rocket 4.0 19:18:23 10° NNW 19:23:33 57° ENE 19:25:21 38° SE
USA 229 DEB 3.7 19:17:29 10° NW 19:24:40 87° NE 19:29:53 21° SE
Helios 1A 2.8 19:23:44 46° SE 19:24:45 64° ENE 19:28:53 10° N
USA 229 3.7 19:17:35 10° NW 19:24:46 86° ENE 19:29:56 21° SE
CZ-2D R/B 3.1 19:24:00 31° SSE 19:25:44 88° ENE 19:29:35 10° NNW
Okean 2 3.3 19:22:29 10° N 19:26:40 87° ENE 19:29:22 22° S
H-2A R/B 3.0 19:23:22 10° S 19:27:03 64° W 19:30:47 10° NNW
Spot 2 Rocket 3.7 19:22:02 10° S 19:27:04 71° WSW 19:32:09 10° NNW
Cosmos 2237 Rocket 2.5 19:21:57 10° NNW 19:27:24 44° ENE 19:28:14 41° E
Cosmos 2333 4.4 19:22:15 10° NNW 19:27:58 74° WSW 19:33:43 10° SSE
Gbstr 26 Del rocket 4.0 19:24:47 10° W 19:28:14 33° NNW 19:29:29 26° NNE
COSMOS 2428 3.1 19:23:05 10° NNW 19:28:43 63° WSW 19:34:18 10° S
Helios 1B rocket 2.3 19:25:22 10° NNE 19:29:30 66° E 19:33:37 10° S
Cosmos 2297 Rocket 3.7 19:24:33 10° SSE 19:26:19 19° SSE 19:26:19 19° SSE
Resurs 01 Rocket 2.5 19:31:39 10° S 19:35:55 49° W 19:40:12 10° NNW
NOSS 3-1 (A) 4.4 19:30:04 10° NNW 19:37:12 44° NE 19:39:19 38° E
Atlas Centaur 2 4.3 19:35:01 10° SSW 19:38:25 15° SSE 19:38:25 15° SSE
Cosmos 1610 Rocket 4.4 19:33:47 10° S 19:40:01 88° W 19:46:13 10° N
Cosmos 2219 Rocket 2.1 19:35:36 10° NNW 19:41:14 88° WSW 19:43:37 36° SSE
ATLAS 2AS CENTAUR R/B 4.4 19:36:00 10° NNW 19:41:58 22° NNE 19:43:50 20° NE
ERS-1 Rocket 4.4 19:45:15 23° NNE 19:45:15 23° NNE 19:47:34 10° N
Cosmos 1814 Rocket 3.8 19:38:17 10° NNW 19:43:26 64° ENE 19:43:31 64° ENE
Envisat 3.2 19:44:07 51° NE 19:44:07 51° NE 19:48:28 10° N
Cosmos 2219 4.3 19:40:59 10° SW 19:46:27 44° WNW 19:51:56 10° NNE
Cosmos 2227 Rocket 2.1 19:44:04 10° S 19:49:27 64° ESE 19:49:27 64° ESE
NOSS 3-1 (C) 4.0 19:48:18 10° NNW 19:55:51 67° NE 19:57:53 51° ESE
SL-16 R/B 3.3 19:57:09 10° N 20:00:38 30° NNE 20:00:38 30° NNE
Cosmos 2333 Rocket 2.9 20:17:31 10° NW 20:23:04 50° WSW 20:23:54 46° SW
Cosmos 1980 4.1 20:20:49 10° NNW 20:26:08 58° W 20:26:08 58° W
Cosmos 2237 Rocket 4.1 21:06:30 10° NW 21:10:07 25° W 21:10:07 25° W
ATLAS 2AS CENTAUR R/B 4.2 21:26:43 10° NNW 21:31:17 36° NNW 21:31:17 36° NNW
